Tracking 29090 objects as of 15-Jul-2024
HD Live streaming from Space Station
objects crossing your sky now

STARLINK-6355

Track STARLINK-6355 now!
10-day predictions
STARLINK-6355 is classified as:


NORAD ID: 57356
Int'l Code: 2023-099AE
Perigee: 565.5 km
Apogee: 566.9 km
Inclination: 43.0 °
Period: 95.8 minutes
Semi major axis: 6937 km
RCS: Unknown
Launch date: July 16, 2023
Source: United States (US)
Launch site: AIR FORCE EASTERN TEST RANGE (AFETR)
Your satellite tracking list
Your tracking list is empty




NASA's NSSDC Master Catalog

Two Line Element Set (TLE):
1 57356U 23099AE  24197.46895767  .00001389  00000-0  11788-3 0  9993
2 57356  42.9980 268.5266 0001028 275.3175  84.7550 15.02536406 56312
Source of the keplerian elements: AFSPC